Regional Weather Roundup
Issued by NWS Jackson, KY

Home | Current Version | Previous Version | Graphics & Text | Print | Product List | Glossary Off
Versions: 1 2 3 4 5 6 7 8 9 10 11 12 13 14 15 16 17 18 19 20 21 22 23 24 25 26 27 28

000
ASUS43 KJKL 010510
RWRJKL

EAST KENTUCKY HOURLY WEATHER ROUNDUP
NATIONAL WEATHER SERVICE JACKSON KY
100 AM EDT SUN MAY 01 2016

NOTE: "FAIR" INDICATES FEW OR NO CLOUDS BELOW 12,000 FEET WITH
NO SIGNIFICANT WEATHER AND/OR OBSTRUCTIONS TO VISIBILITY.

* THESE REPORTS ARE NOT UNDER NWS QUALITY CONTROL AND MAY NOT
  REPORT WEATHER SUCH AS PRECIPITATION AND FOG.

KYZ079-080-083-085-087-088-110-112-115-119-120-010600
...EASTERN KENTUCKY...

CITY           SKY/WX    TMP DP  RH WIND       PRES   REMARKS
JACKSON        FOG       61  59  93 CALM      29.97F VSB 1/2
LONDON         CLOUDY    62  60  93 NE5       29.96R
SOMERSET*      LGT RAIN  61  61 100 CALM      29.96F
MONTICELLO*    LGT RAIN  64  63  96 SE7       29.95F
WILLIAMSBURG*  CLOUDY    59  59 100 S3        29.96S
MIDDLESBORO*   CLOUDY    61  61 100 CALM      30.00S
HARLAN APT*    CLOUDY    61  59  94 CALM      30.02R
BLACK MTN*       N/A     55  55 100 CALM        N/A
PIKE CO APT*   LGT RAIN  60  60 100 CALM      30.01F
BIG SANDY APT* LGT RAIN  61  61 100 CALM      30.00F
MOREHEAD APT*  CLOUDY    61  61 100 S8        29.98F FOG
$$

KYZ035-036-041-042-044-050-067-078-099-010600
...CENTRAL KENTUCKY...

CITY           SKY/WX    TMP DP  RH WIND       PRES   REMARKS
MT STERLING*   CLOUDY    61  61 100 S8        29.97F
FLEMING/MASON* DRIZZLE   60  60  97 S9        29.95F
DANVILLE*      LGT RAIN  61  61 100 SE3       29.95F
RICHMOND*      CLOUDY    63  61  94 SE5       29.95F
LEXINGTON      LGT RAIN  63  61  93 SE8       29.95S
FRANKFORT      LGT RAIN  63  60  90 S8        29.91S
LOUISVILLE     CLOUDY    65  62  90 SE5       29.90R
LEBANON*         N/A     64  64 100 CALM      29.94R
BOWLING GREEN  CLOUDY    67  65  93 SE3       29.89S
$$

KYZ091>093-OHZ055-061-077-WVZ005-015-034-035-042-010600
...SOUTHERN OHIO/WEST VIRGINIA...

CITY           SKY/WX    TMP DP  RH WIND       PRES   REMARKS
COVINGTON      LGT RAIN  62  60  93 S9        29.90F
COLUMBUS       CLOUDY    55  55 100 S3        29.90F FOG
DAYTON         CLOUDY    58  58 100 S14       29.90S FOG
WILMINGTON     CLOUDY    58  57  97 S12       29.90S
HUNTINGTON     RAIN      62  60  93 S9        29.98S
CHARLESTON     RAIN      61  59  93 S3        30.01S FOG
PINEVILLE*     LGT RAIN  58  55  87 MISG      30.10F
BECKLEY        LGT RAIN  54  52  93 SE7       30.08S
$$

VAZ002-007-008-TNZ017-027-036-066-071-010600
...SOUTHWEST VIRGINIA/EAST TENNESSEE...

CITY           SKY/WX    TMP DP  RH WIND       PRES   REMARKS
WISE*          LGT RAIN  59  59 100 S6        30.07R
BRISTOL        LGT RAIN  62  60  93 E10       30.03S FOG
SEVIERVILLE*   MOCLDY    63  63 100 CALM      29.98R
KNOXVILLE      CLOUDY    63  62  97 NE7       29.96S
OAK RIDGE      MOCLDY    63  62  97 CALM      29.98F
CROSSVILLE     CLOUDY    65  61  87 S7        29.98R
NASHVILLE      MOCLDY    68  64  87 CALM      29.91R
$$

...KEY TO REMARKS...
VSB - VISIBILITY IN MILES
WCI - WIND CHILL INDEX
HX  - HEAT INDEX

$$




USA.gov is the U.S. government's official web portal to all federal, state and local government web resources and services.